Location: Recife
(8.0585°S, 34.8848°W)
Time: 12:06:20
(UTC-03:00)

Courier 1B - Pass Details

Date: 20 April 2026
Orbit: 962 x 1209 km, 28.3° (Epoch: 7 May)

Event Time Altitude Azimuth Distance (km) Brightness Sun altitude
Rises 04:37:56 0° 279° (W) 3,892 - -11.5°
Reaches altitude 10° 04:40:48 10° 272° (W) 2,975 - -10.8°
Exits shadow 04:41:21 12° 270° (W) 2,809 9.3 -10.6°
Maximum altitude 04:47:40 41° 204° (SSW) 1,613 8.4 -9.1°
Drops below altitude 10° 04:54:55 10° 135° (SE) 3,122 10.6 -7.3°
Sets 04:58:01 0° 128° (SE) 4,103 11.4 -6.6°
